THOR DELTA 1 R/B

基本信息
目录编号:
12889
目录名称:
THOR DELTA 1 R/B
国际标识:
1981-100C
轨道中心:
EARTH
物体状态:
在轨
发射日期:
1981-10-06 UTC
国别:
美国 (US)
轨道信息
数据来源: 国际轨道数据
星历时间: 2026-09-05T13:05:21+0800
半长轴: 7969.784km
偏心率: 0.1306985
轨道倾角: 99.871°
近地点辐角: 113.346°
升交点赤经: 101.388°
平近点角: 2.563°
近地点: 550.008km
远地点: 2633.286km
周期: 118.013分钟
每日圈数: 12.202056
详细信息
发射场:
AFWTR
轨道高度:
LEO
数据来源:
AOE Integration Group
参考系:
TEME
时间系统:
UTC
历元类型:
SGP4
2D轨道图
3D轨道图
轨道高度分析图
轨道倾角分析图
轨道综合分析图
查看轨道综合分析图